Home   Weather   Frankenthal (Pfalz)   Past weeks

Flag for Germany Past Weather in Frankenthal (Pfalz), Rhineland-Palatinate, Germany — Yesterday and Last 2 Weeks

Now
61 °F

Passing clouds.


Feels Like: 61 °F
Forecast: 42 / 52 °F
Wind: 13 mph from Southeast

Location: Mannheim City

Current Time: Apr 30, 2017 at 1:08:45 pm

Latest Report: Apr 30, 2017 at 12:20 pm


Visibility: N/A

Pressure: 29.89 "Hg

Humidity: 34%

Dew Point: 32 °F

Location of Frankenthal (Pfalz)Location

Past Weather in Frankenthal (Pfalz) — Graph

°F

Frankenthal (Pfalz) Temperature Yesterday

Maximum temperature yesterday: 61 °F (at 3:50 pm)
Minimum temperature yesterday: 46 °F (at 7:50 am)
Average temperature yesterday: 55 °F

High & Low Weather Summary for the Past Weeks

 TemperatureHumidityPressure
High63 °F (Apr 24, 6:50 pm)100% (Apr 24, 5:20 am)30.60 "Hg (Apr 24, 5:20 am)
Low28 °F (Apr 20, 5:50 am)28% (Apr 21, 12:50 pm)29.71 "Hg (Apr 25, 5:50 am)
Average49 °F50%30.13 "Hg
* Reported Apr 19 9:20 am — Apr 30 11:50 am, Frankenthal (Pfalz), Weather by CustomWeather, © 2017

Note: Actual official high and low records may vary slightly from our data, if they occured in-between our weather recording intervals... More about our weather records

Advertising

Frankenthal (Pfalz) Weather History for the Previous 24 Hours

Scroll right to see more
 ConditionsComfort  
Time TempWeatherWind HumidityBarometerVisibility
11:50 am
Sun, Apr 30
61 °FPassing clouds.14 mph31%29.92 "HgN/A
11:20 am61 °FPassing clouds.12 mph34%29.92 "HgN/A
10:50 am59 °FPassing clouds.12 mph36%29.92 "HgN/A
10:20 am57 °FPassing clouds.9 mph39%29.95 "HgN/A
9:50 am55 °FPassing clouds.9 mph41%29.95 "HgN/A
9:20 am54 °FPassing clouds.6 mph51%29.95 "HgN/A
8:50 am52 °FSunny.3 mph58%29.98 "Hg10 mi
8:20 am48 °FSunny.2 mph62%29.98 "Hg10 mi
7:50 am46 °FSunny.1 mph76%29.98 "Hg10 mi
7:20 pm
Sat, Apr 29
59 °FPassing clouds.5 mph34%30.01 "HgN/A
6:50 pm59 °FSunny.2 mph34%30.01 "Hg10 mi
6:20 pm59 °FSunny.3 mph34%30.01 "Hg10 mi
5:50 pm59 °FSunny.6 mph34%30.01 "Hg10 mi
5:20 pm59 °FSunny.5 mph34%30.01 "Hg10 mi
4:50 pm59 °FPassing clouds.5 mph36%30.01 "HgN/A
4:20 pm59 °FSunny.3 mph34%30.04 "Hg10 mi
3:50 pm61 °FSunny.5 mph34%30.04 "Hg10 mi
3:20 pm59 °FScattered clouds.6 mph36%30.04 "HgN/A
2:20 pm55 °FPartly sunny.6 mph41%30.04 "HgN/A
1:50 pm57 °FScattered clouds.5 mph39%30.04 "HgN/A
Weather by CustomWeather, © 2017

See weather overviewHow to use our weather pages